Location: Auckland
(36.8670°S, 174.7670°E)
Time: 18:12:07
(UTC+13:00)

ADEOS Rocket - Pass Details

Date: 24 January 2019
Orbit: 859 x 1306 km, 98.7° (Epoch: 15 October)

Event Time Altitude Azimuth Distance (km) Brightness Sun altitude
Exits shadow 23:07:11 23° 330° (NNW) 1,808 4.2 -24.2°
Maximum altitude 23:10:05 38° 278° (W) 1,321 3.9 -24.6°
Drops below altitude 10° 23:15:13 10° 211° (SSW) 2,525 6.2 -25.2°
Sets 23:17:46 0° 202° (SSW) 3,474 7.1 -25.5°
